Location: Peterborough
(44.3091°N, 78.3197°W)
Time: 23:41:55
(UTC-04:00)

Tiangong - Pass Details

Date: 21 March 2026
Orbit: 376 x 385 km, 41.5° (Epoch: 20 April)

Event Time Altitude Azimuth Distance (km) Brightness Sun altitude
Exits shadow 05:06:28 22° 123° (ESE) 895 0.0 -23.0°
Drops below altitude 10° 05:07:48 10° 112° (ESE) 1,397 1.2 -22.8°
Sets 05:09:55 0° 106° (ESE) 2,252 2.5 -22.5°
